Preview of NWS' New Version of Forecast
This preview is not operational and should not be used for support decisions.

Regional Weather Roundup (RWR)

Issued by National Weather Service (NWS)

                            
000
ASUS45 KABQ 181701
RWRNM 
NEW MEXICO REGIONAL WEATHER ROUNDUP
NATIONAL WEATHER SERVICE ALBUQUERQUE NM
1100 AM MDT THU APR 18 2019

NOTE: "FAIR" MEANS FEW OR NO CLOUDS BELOW 12,000 FEET AGL WITH NO
       SIGNIFICANT WEATHER OR OBSTRUCTIONS TO VISION.

      THIS PRODUCT IS RELEASED AS TWO VERSIONS.  ONE VERSION NEAR
      THE TOP OF THE HOUR CONTAINING PRELIMINARY DATA FROM ALBUQUERQUE
      AND OTHER STATIONS.  A FINAL VERSION WITH ADDITIONAL DATA IS 
      ISSUED ABOUT 10 MINUTES AFTER THE HOUR.
 
NMZ501-503-504-510>518-181800-
NORTHWEST PLATEAU/NORTHCENTRAL MOUNTAINS
  
CITY           SKY/WX    TMP DP  RH WIND       PRES   REMARKS
FARMINGTON     FAIR      61  24  24 W12       30.22S                  
LOS ALAMOS       N/A     51  27  39 NE8       30.29S                  
SANTA FE       FAIR      56  33  42 NW3       30.26R                  
TAOS           FAIR      54  22  28 N16G24    30.27S                  

$$
NMZ402-403-502-505>509-181800-
WESTCENTRAL MOUNTAINS/SOUTHWEST MOUNTAINS
  
CITY           SKY/WX    TMP DP  RH WIND       PRES   REMARKS
GALLUP         FAIR      57  29  34 VRB3      30.30S                  
GRANTS         FAIR      55  29  37 NE5       30.31R                  
SILVER CITY    FAIR      62  29  28 W5        30.24R                  

$$
NMZ407-409-411-412-181800-
SOUTHERN DESERTS
  
CITY           SKY/WX    TMP DP  RH WIND       PRES   REMARKS
DEMING         FAIR      66  33  29 E7        30.21R                  
HOLLOMAN AFB   FAIR      61  48  61 W5        30.22R                  
ALAMOGORDO     FAIR      59  46  63 CALM      30.21R                  
T OR C         FAIR      64  34  32 NE9       30.22R                  

$$
NMZ519>523-181800-
CENTRAL VALLEYS/CENTRAL HIGHLANDS
  
CITY           SKY/WX    TMP DP  RH WIND       PRES   REMARKS
ALBUQUERQUE    FAIR      55  40  56 NW8       30.25R                  
DOUBLE EAGLE   MOSUNNY   55  36  47 N9        30.27R                  
CLINES CORNERS PTSUNNY   78  70  76 VRB3      29.77F                  
BELEN          FAIR      55  39  56 NE3       30.26R                  
SOCORRO        NOT AVBL                                               

$$
NMZ524>526-539-540-181800-
SOUTHCENTRAL MOUNTAINS
  
CITY           SKY/WX    TMP DP  RH WIND       PRES   REMARKS
RUIDOSO        CLOUDY    52  34  50 SE13      30.30R                  

$$
NMZ527>531-181800-
NORTHEAST HIGHLANDS/NORTHEAST PLAINS
  
CITY           SKY/WX    TMP DP  RH WIND       PRES   REMARKS
LAS VEGAS      FAIR      47  35  63 VRB3      30.26R                  
RATON          FAIR      52  34  50 E6        30.19F                  
CLAYTON        PTSUNNY   56  33  42 NW14G23   30.18S                  

$$
NMZ532>537-181800-
EASTCENTRAL PLAINS
  
CITY           SKY/WX    TMP DP  RH WIND       PRES   REMARKS
SANTA ROSA     FAIR      57  33  40 NW6       30.22S                  
TUCUMCARI      FAIR      61  36  39 N10G16    30.17F                  
CANNON AFB     FAIR      56  38  52 NE10G22   30.21R                  
CLOVIS AIRPORT FAIR      57  38  48 N18G25    30.20S                  

$$
NMZ028-029-538-181800-
SOUTHEAST PLAINS
  
CITY           SKY/WX    TMP DP  RH WIND       PRES   REMARKS
ROSWELL        FAIR      65  42  43 N12       30.20R                  
ARTESIA        CLOUDY    64  43  45 NE9       30.20S                  
CARLSBAD       FAIR      65  43  44 N8        30.18R                  
HOBBS          SUNNY     66  36  32 N17G28    30.17R                  


$$